Weather History for Fort Stockton, TX

Change the Weather History Date:

Monday, April 29, 2013

  Actual Average Record
Temperature  
Mean Temperature 70 °F -  
Max Temperature 87 °F 84 °F 102 °F (2011)
Min Temperature 54 °F 55 °F 45 °F (1998)
Cooling Degree Days 6    
Growing Degree Days 20 (Base 50)    
Moisture  
Dew Point 43 °F    
Average Humidity 41    
Maximum Humidity 75    
Minimum Humidity 14    
Precipitation  
Precipitation 0.00 in - - ()
Sea Level Pressure  
Sea Level Pressure 29.74 in    
Wind  
Wind Speed 11 mph (SSE)    
Max Wind Speed 20 mph    
Max Gust Speed 23 mph    
Visibility 10 miles    
Events      
Averages and records for this station are not official NWS values.
T = Trace of Precipitation, MM = Missing Value Source: NWS Daily Summary

Daily Weather History Graph

Daily Weather History Graph

Search for Another Location

Airport:

Trip Planner

Search our weather history database for the weather conditions in past years. The results will help you decide how hot, cold, wet, or windy it might be!

Date:

Astronomy

Apr. 29, 2013 Rise Set
Actual Time 7:09 AM CDT 8:29 PM CDT
Civil Twilight 6:43 AM CDT 8:54 PM CDT
Nautical Twilight 6:13 AM CDT 9:25 PM CDT
Astronomical Twilight 5:41 AM CDT 9:57 PM CDT
Moon No Moon Rise 10:38 AM CDT (4/29)
Length of Visible Light 14h 11m
Length of Day
13h 20m
Waning Gibbous, 80% of the Moon is Illuminated
Apr 29
Waning Gibbous
May 2
Last Quarter
May 9
New
May 17
First Quarter
May 24
Full

Hourly Weather History & Observations

Time (CDT) Temp. Dew Point Humidity Pressure Visibility Wind Dir Wind Speed Gust Speed Precip Events Conditions
12:53 AM 63.0 °F 46.0 °F 54% 29.81 in 10.0 mi South 8.1 mph - N/A   Clear
1:53 AM 61.0 °F 48.9 °F 64% 29.82 in 10.0 mi South 12.7 mph - N/A   Clear
2:53 AM 61.0 °F 46.9 °F 60% 29.82 in 10.0 mi South 15.0 mph 23.0 mph N/A   Clear
3:53 AM 61.0 °F 46.0 °F 58% 29.80 in 10.0 mi South 19.6 mph - N/A   Clear
4:53 AM 57.9 °F 46.9 °F 67% 29.79 in 10.0 mi South 12.7 mph - N/A   Clear
5:53 AM 55.9 °F 46.9 °F 72% 29.80 in 10.0 mi South 5.8 mph - N/A   Clear
6:53 AM 54.0 °F 46.0 °F 75% 29.80 in 10.0 mi SW 8.1 mph - N/A   Clear
7:53 AM 57.0 °F 46.9 °F 69% 29.79 in 10.0 mi SW 16.1 mph - N/A   Clear
8:53 AM 63.0 °F 48.0 °F 58% 29.81 in 10.0 mi SSW 13.8 mph - N/A   Clear
9:53 AM 70.0 °F 48.9 °F 47% 29.80 in 10.0 mi WSW 10.4 mph - N/A   Clear
10:53 AM 75.0 °F 46.0 °F 36% 29.80 in 10.0 mi Calm Calm - N/A   Clear
11:53 AM 75.9 °F 50.0 °F 40% 29.79 in 10.0 mi East 9.2 mph - N/A   Clear
12:53 PM 79.0 °F 43.0 °F 28% 29.77 in 10.0 mi Variable 6.9 mph - N/A   Clear
1:53 PM 81.0 °F 44.1 °F 27% 29.75 in 10.0 mi Variable 4.6 mph - N/A   Clear
2:53 PM 84.9 °F 36.0 °F 17% 29.71 in 10.0 mi SE 8.1 mph - N/A   Clear
3:53 PM 84.9 °F 35.1 °F 17% 29.68 in 10.0 mi SE 6.9 mph - N/A   Clear
4:53 PM 86.0 °F 34.0 °F 16% 29.66 in 10.0 mi ENE 8.1 mph 16.1 mph N/A   Clear
5:53 PM 87.1 °F 32.0 °F 14% 29.64 in 10.0 mi ESE 12.7 mph 16.1 mph N/A   Clear
6:53 PM 84.9 °F 36.0 °F 17% 29.63 in 10.0 mi ESE 13.8 mph - N/A   Clear
7:53 PM 82.0 °F 39.9 °F 22% 29.63 in 10.0 mi ESE 12.7 mph - N/A   Clear
8:53 PM 78.1 °F 41.0 °F 27% 29.64 in 10.0 mi SE 12.7 mph - N/A   Clear
9:53 PM 75.0 °F 42.1 °F 31% 29.66 in 10.0 mi SE 12.7 mph - N/A   Clear
10:53 PM 73.0 °F 43.0 °F 34% 29.66 in 10.0 mi SSE 16.1 mph 21.9 mph N/A   Clear
11:53 PM 70.0 °F 46.9 °F 44% 29.67 in 10.0 mi SSE 17.3 mph - N/A   Clear